Location: Chilton Park
(37.7711°N, 100.0276°W)
Time: 03:20:08
(UTC+00:00)

Cosmos 1898 Rocket - Pass Details

Date: 06 July 2022
Orbit: 753 x 783 km, 74.0° (Epoch: 13 August)

Event Time Altitude Azimuth Distance (km) Brightness Sun altitude
Rises 09:16:51 0° 319° (NW) 3,210 6.9 -19.8°
Reaches altitude 10° 09:20:22 10° 295° (WNW) 2,281 5.8 -19.4°
Enters shadow 09:21:46 13° 279° (W) 2,080 5.5 -19.2°
